Location: Allen Fire Department Station 4
(33.1073°N, 96.6988°W)
Time: 14:23:07
(UTC+00:00)

Cosmos 1763 Rocket - Pass Details

Date: 28 June 2022
Orbit: 732 x 780 km, 74.0° (Epoch: 07 August)

Event Time Altitude Azimuth Distance (km) Brightness Sun altitude
Exits shadow 08:41:06 58° 289° (WNW) 881 3.6 -25.6°
Drops below altitude 10° 08:46:15 10° 8° (N) 2,305 6.8 -25.0°
Sets 08:48:42 0° 12° (NNE) 3,241 7.8 -24.7°
